Regional Weather Roundup
Issued by NWS

Home | Current Version | Previous Version | Graphics & Text | Print | Product List | Glossary On
Versions: 1 2 3 4 5 6 7 8 9 10 11 12 13 14 15 16 17 18 19 20 21 22 23 24 25 26 27 28 29 30 31 32 33 34 35 36 37 38 39 40 41 42 43 44 45 46 47 48 49 50
000
ASUS45 KABQ 262201
RWRNM
NEW MEXICO REGIONAL WEATHER ROUNDUP
NATIONAL WEATHER SERVICE ALBUQUERQUE NM
400 PM MDT FRI MAY 26 2017

NOTE: "FAIR" MEANS FEW OR NO CLOUDS BELOW 12,000 FEET AGL WITH NO
       SIGNIFICANT WEATHER OR OBSTRUCTIONS TO VISION.

      THIS PRODUCT IS RELEASED AS TWO VERSIONS.  ONE VERSION NEAR
      THE TOP OF THE HOUR CONTAINING PRELIMINARY DATA FROM ALBUQUERQUE
      AND OTHER STATIONS.  A FINAL VERSION WITH ADDITIONAL DATA IS
      ISSUED ABOUT 10 MINUTES AFTER THE HOUR.

NMZ501-503-504-510>518-262300-
NORTHWEST PLATEAU/NORTHCENTRAL MOUNTAINS

CITY           SKY/WX    TMP DP  RH WIND       PRES   REMARKS
FARMINGTON     FAIR      80  10   7 SW22G32   29.89F
LOS ALAMOS     FAIR      74  13   9 SW15G25   30.05F
SANTA FE       FAIR      80  17   9 SW10G31   29.98F
TAOS           FAIR      73  18  12 W9G22     30.01F

$$
NMZ402-403-502-505>509-262300-
WESTCENTRAL MOUNTAINS/SOUTHWEST MOUNTAINS

CITY           SKY/WX    TMP DP  RH WIND       PRES   REMARKS
GALLUP         FAIR      76  14   9 SW26G39   30.02F
GRANTS         FAIR      78  10   7 SW15G35   30.02F
SILVER CITY    FAIR      82  24  12 W21G31    30.03F

$$
NMZ407-409-411-412-262300-
SOUTHERN DESERTS

CITY           SKY/WX    TMP DP  RH WIND       PRES   REMARKS
DEMING         FAIR      90  26  10 W22G35    29.94F
LAS CRUCES     FAIR      91  24   9 W18G36    29.95F
HOLLOMAN AFB   FAIR      90  21   8 W21       29.95F
ALAMOGORDO     FAIR      90  25   9 SW20G29   29.94F
T OR C         FAIR      87  18   8 S8G26     29.92F

$$
NMZ519>523-262300-
CENTRAL VALLEYS/CENTRAL HIGHLANDS

CITY           SKY/WX    TMP DP  RH WIND       PRES   REMARKS
ALBUQUERQUE    PTSUNNY   82   9   6 VRB3      29.91F
DOUBLE EAGLE   MOSUNNY  N/A N/A N/A SW18G30   29.95F
MORIARTY ARPT  FAIR      82  19   9 S20G25    30.00F
CLINES CORNERS FAIR      76  17  11 SW24G37   30.05F
BELEN          FAIR      88  14   6 SW15G29   29.91F
SOCORRO        FAIR      90  15   6 SW20G32   29.88F

$$
NMZ524>526-539-540-262300-
SOUTHCENTRAL MOUNTAINS

CITY           SKY/WX    TMP DP  RH WIND       PRES   REMARKS
RUIDOSO        NOT AVBL

$$
NMZ527>531-262300-
NORTHEAST HIGHLANDS/NORTHEAST PLAINS

CITY           SKY/WX    TMP DP  RH WIND       PRES   REMARKS
LAS VEGAS      FAIR      76  11   8 SW22G30   30.01F
RATON          FAIR      74  21  13 S25       29.92F
CLAYTON        FAIR      79  41  25 S20G26    29.92F

$$
NMZ532>537-262300-
EASTCENTRAL PLAINS

CITY           SKY/WX    TMP DP  RH WIND       PRES   REMARKS
SANTA ROSA     FAIR      88  20   8 SW17G28   29.88F
TUCUMCARI      FAIR      91  18   7 SW13      29.83F
CANNON AFB     FAIR      90  14   6 SW17G29   29.90F
CLOVIS AIRPORT FAIR      90  27  10 SW15G30   29.89F

$$
NMZ028-029-538-262300-
SOUTHEAST PLAINS

CITY           SKY/WX    TMP DP  RH WIND       PRES   REMARKS
ROSWELL        FAIR      96  22   7 MISG      29.83F
ARTESIA        FAIR      95  27   8 SW25G35   29.85F
CARLSBAD       FAIR      96  23   7 SW24G31   29.85F
HOBBS          SUNNY     93  23   8 SW17G30   29.90F


$$




USA.gov is the U.S. government's official web portal to all federal, state and local government web resources and services.